Weather History for Keokuk, IA

Change the Weather History Date:

Tuesday, March 19, 2013

  Actual Average Record
Temperature  
Mean Temperature 34 °F -  
Max Temperature 44 °F 50 °F 80 °F (2012)
Min Temperature 24 °F 34 °F 10 °F (1965)
Degree Days  
Heating Degree Days 31    
Moisture  
Dew Point 6 °F    
Average Humidity 35    
Maximum Humidity 59    
Minimum Humidity 11    
Precipitation  
Precipitation 0.00 in - - ()
Sea Level Pressure  
Sea Level Pressure 30.12 in    
Wind  
Wind Speed 12 mph (WNW)    
Max Wind Speed 17 mph    
Max Gust Speed 29 mph    
Visibility 10 miles    
Events      
Averages and records for this station are not official NWS values.
T = Trace of Precipitation, MM = Missing Value Source: NWS Daily Summary

Daily Weather History Graph

Daily Weather History Graph

Search for Another Location

Airport:

Trip Planner

Search our weather history database for the weather conditions in past years. The results will help you decide how hot, cold, wet, or windy it might be!

Date:

Astronomy

Mar. 19, 2013 Rise Set
Actual Time 7:10 AM CDT 7:17 PM CDT
Civil Twilight 6:43 AM CDT 7:44 PM CDT
Nautical Twilight 6:11 AM CDT 8:16 PM CDT
Astronomical Twilight 5:39 AM CDT 8:48 PM CDT
Moon 11:59 AM CDT (3/19) 2:05 AM CDT (3/19)
Length of Visible Light 13h 01m
Length of Day
12h 06m
Waxing Crescent, 50% of the Moon is Illuminated
Mar 19
Waxing Crescent
Mar 19
First Quarter
Mar 27
Full
Apr 2
Last Quarter
Apr 10
New

Hourly Weather History & Observations

Time (CDT) Temp. Windchill Dew Point Humidity Pressure Visibility Wind Dir Wind Speed Gust Speed Precip Events Conditions
12:15 AM 30.2 °F 20.2 °F 15.8 °F 55% 29.97 in 10.0 mi West 12.7 mph 17.3 mph N/A   Clear
12:35 AM 30.2 °F 20.8 °F 15.8 °F 55% 29.96 in 10.0 mi WNW 11.5 mph 16.1 mph N/A   Clear
12:55 AM 30.2 °F 20.2 °F 15.8 °F 55% 29.97 in 10.0 mi WNW 12.7 mph - N/A   Clear
1:15 AM 28.4 °F 18.0 °F 15.8 °F 59% 29.98 in 10.0 mi West 12.7 mph 19.6 mph N/A   Clear
1:35 AM 28.4 °F 18.0 °F 15.8 °F 59% 29.99 in 10.0 mi West 12.7 mph 18.4 mph N/A   Clear
1:55 AM 28.4 °F 16.6 °F 15.8 °F 59% 29.99 in 10.0 mi WNW 16.1 mph 23.0 mph N/A   Clear
2:15 AM 28.4 °F 17.0 °F 14.0 °F 55% 30.00 in 10.0 mi WNW 15.0 mph 19.6 mph N/A   Clear
2:35 AM 28.4 °F 17.0 °F 15.8 °F 59% 30.01 in 10.0 mi WNW 15.0 mph 20.7 mph N/A   Clear
2:55 AM 28.4 °F 17.0 °F 12.2 °F 51% 29.99 in 10.0 mi WNW 15.0 mph 28.8 mph N/A   Clear
3:15 AM 28.4 °F 17.0 °F 12.2 °F 51% 30.00 in 10.0 mi WNW 15.0 mph 23.0 mph N/A   Clear
3:35 AM 26.6 °F 17.5 °F 12.2 °F 55% 30.00 in 10.0 mi NW 9.2 mph 16.1 mph N/A   Clear
3:55 AM 26.6 °F 16.8 °F 14.0 °F 59% 30.02 in 10.0 mi WNW 10.4 mph 16.1 mph N/A   Clear
4:15 AM 26.6 °F 16.2 °F 14.0 °F 59% 30.01 in 10.0 mi WNW 11.5 mph - N/A   Clear
4:35 AM 26.6 °F 16.2 °F 14.0 °F 59% 30.03 in 10.0 mi WNW 11.5 mph - N/A   Clear
4:55 AM 24.8 °F 14.6 °F 12.2 °F 59% 30.03 in 10.0 mi WNW 10.4 mph - N/A   Clear
5:15 AM 26.6 °F 15.2 °F 12.2 °F 55% 30.04 in 10.0 mi WNW 13.8 mph - N/A   Clear
5:35 AM 24.8 °F 12.9 °F 12.2 °F 59% 30.04 in 10.0 mi WNW 13.8 mph 18.4 mph N/A   Clear
5:55 AM 24.8 °F 14.0 °F 10.4 °F 54% 30.05 in 10.0 mi WNW 11.5 mph 21.9 mph N/A   Clear
6:15 AM 24.8 °F 14.0 °F 10.4 °F 54% 30.05 in 10.0 mi WNW 11.5 mph 18.4 mph N/A   Clear
6:35 AM 24.8 °F 12.4 °F 10.4 °F 54% 30.06 in 10.0 mi WNW 15.0 mph 18.4 mph N/A   Clear
6:55 AM 24.8 °F 13.4 °F 8.6 °F 50% 30.07 in 10.0 mi WNW 12.7 mph 18.4 mph N/A   Clear
7:15 AM 24.8 °F 14.6 °F 8.6 °F 50% 30.08 in 10.0 mi WNW 10.4 mph - N/A   Clear
7:35 AM 24.8 °F 16.1 °F 8.6 °F 50% 30.09 in 10.0 mi WNW 8.1 mph - N/A   Clear
7:55 AM 24.8 °F 14.6 °F 10.4 °F 54% 30.10 in 10.0 mi WNW 10.4 mph - N/A   Clear
8:15 AM 26.6 °F 15.7 °F 10.4 °F 51% 30.10 in 10.0 mi WNW 12.7 mph 17.3 mph N/A   Clear
8:35 AM 26.6 °F 14.7 °F 10.4 °F 51% 30.12 in 10.0 mi WNW 15.0 mph - N/A   Clear
8:55 AM 26.6 °F 14.7 °F 8.6 °F 47% 30.13 in 10.0 mi WNW 15.0 mph 20.7 mph N/A   Clear
9:15 AM 28.4 °F 17.5 °F 6.8 °F 40% 30.13 in 10.0 mi NW 13.8 mph 20.7 mph N/A   Clear
9:35 AM 28.4 °F 18.0 °F 8.6 °F 43% 30.14 in 10.0 mi WNW 12.7 mph - N/A   Clear
9:55 AM 30.2 °F 18.5 °F 6.8 °F 37% 30.15 in 10.0 mi NW 17.3 mph - N/A   Clear
10:15 AM 32.0 °F 23.0 °F 5.0 °F 32% 30.16 in 10.0 mi WNW 11.5 mph - N/A   Clear
10:35 AM 32.0 °F 21.2 °F 1.4 °F 27% 30.17 in 10.0 mi WNW 16.1 mph 21.9 mph N/A   Clear
10:55 AM 33.8 °F 25.3 °F -0.4 °F 23% 30.17 in 10.0 mi NW 11.5 mph 23.0 mph N/A   Clear
11:15 AM 33.8 °F 25.3 °F 1.4 °F 25% 30.18 in 10.0 mi West 11.5 mph 19.6 mph N/A   Clear
11:35 AM 35.6 °F 26.6 °F 1.4 °F 24% 30.18 in 10.0 mi West 13.8 mph 21.9 mph N/A   Clear
11:55 AM 37.4 °F 29.3 °F -0.4 °F 20% 30.18 in 10.0 mi NW 12.7 mph 18.4 mph N/A   Clear
12:15 PM 37.4 °F 28.9 °F -2.2 °F 19% 30.19 in 10.0 mi WNW 13.8 mph 18.4 mph N/A   Clear
12:35 PM 37.4 °F 30.3 °F -0.4 °F 20% 30.19 in 10.0 mi West 10.4 mph - N/A   Clear
12:55 PM 39.2 °F 33.0 °F -5.8 °F 15% 30.19 in 10.0 mi West 9.2 mph 18.4 mph N/A   Clear
1:15 PM 39.2 °F 33.0 °F -11.2 °F 11% 30.18 in 10.0 mi NW 9.2 mph - N/A   Clear
1:35 PM 41.0 °F 34.7 °F -4.0 °F 15% 30.18 in 10.0 mi West 10.4 mph - N/A   Clear
1:55 PM 42.8 °F 36.6 °F -2.2 °F 15% 30.18 in 10.0 mi WSW 11.5 mph 16.1 mph N/A   Clear
2:15 PM 42.8 °F 36.6 °F -2.2 °F 15% 30.18 in 10.0 mi WNW 11.5 mph - N/A   Clear
2:35 PM 42.8 °F 36.6 °F -2.2 °F 15% 30.16 in 10.0 mi West 11.5 mph 17.3 mph N/A   Clear
2:55 PM 42.8 °F 36.2 °F -5.8 °F 13% 30.17 in 10.0 mi West 12.7 mph 18.4 mph N/A   Clear
3:15 PM 42.8 °F 37.5 °F -4.0 °F 14% 30.17 in 10.0 mi West 9.2 mph - N/A   Clear
3:35 PM 42.8 °F 35.4 °F -4.0 °F 14% 30.17 in 10.0 mi West 15.0 mph 18.4 mph N/A   Clear
3:55 PM 44.6 °F 38.8 °F -2.2 °F 14% 30.17 in 10.0 mi West 11.5 mph - N/A   Clear
4:15 PM 44.6 °F 40.2 °F -2.2 °F 14% 30.16 in 10.0 mi West 8.1 mph 16.1 mph N/A   Clear
4:35 PM 44.6 °F 39.2 °F -4.0 °F 13% 30.16 in 10.0 mi West 10.4 mph - N/A   Clear
4:55 PM 44.6 °F 38.4 °F -5.8 °F 12% 30.16 in 10.0 mi West 12.7 mph - N/A   Clear
5:15 PM 44.6 °F 38.4 °F -7.6 °F 11% 30.16 in 10.0 mi West 12.7 mph 16.1 mph N/A   Clear
5:35 PM 44.6 °F 38.4 °F -4.0 °F 13% 30.16 in 10.0 mi West 12.7 mph 16.1 mph N/A   Clear
5:55 PM 44.6 °F 39.7 °F -5.8 °F 12% 30.16 in 10.0 mi WNW 9.2 mph - N/A   Clear
6:15 PM 44.6 °F 39.7 °F -5.8 °F 12% 30.16 in 10.0 mi West 9.2 mph - N/A   Clear
6:35 PM 42.8 °F 37.5 °F -4.0 °F 14% 30.16 in 10.0 mi West 9.2 mph - N/A   Clear
7:15 PM 39.2 °F 34.2 °F 3.2 °F 22% 30.16 in 10.0 mi West 6.9 mph - N/A   Clear
7:35 PM 39.2 °F 35.9 °F 5.0 °F 24% 30.16 in 10.0 mi West 4.6 mph - N/A   Clear
7:55 PM 39.2 °F 37.0 °F 1.4 °F 21% 30.16 in 10.0 mi West 3.5 mph - N/A   Clear
8:15 PM 39.2 °F - 3.2 °F 22% 30.16 in 10.0 mi Calm Calm - N/A   Mostly Cloudy
8:35 PM 37.4 °F 33.8 °F 1.4 °F 22% 30.17 in 10.0 mi WNW 4.6 mph - N/A   Mostly Cloudy
8:55 PM 39.2 °F 37.0 °F 3.2 °F 22% 30.16 in 10.0 mi WNW 3.5 mph - N/A   Scattered Clouds
9:15 PM 35.6 °F - 8.6 °F 33% 30.16 in 10.0 mi Calm Calm - N/A   Clear
9:35 PM 32.0 °F 26.4 °F 12.2 °F 44% 30.17 in 10.0 mi SW 5.8 mph - N/A   Clear
9:55 PM 33.8 °F 29.6 °F 10.4 °F 38% 30.17 in 10.0 mi North 4.6 mph - N/A   Clear
10:15 PM 35.6 °F 32.8 °F 8.6 °F 33% 30.16 in 10.0 mi NNW 3.5 mph - N/A   Clear
10:35 PM 37.4 °F 33.8 °F 8.6 °F 30% 30.16 in 10.0 mi NNW 4.6 mph - N/A   Clear
10:55 PM 33.8 °F 29.6 °F 12.2 °F 41% 30.16 in 10.0 mi NNW 4.6 mph - N/A   Clear
11:15 PM 33.8 °F 27.7 °F 14.0 °F 44% 30.18 in 10.0 mi NNW 6.9 mph - N/A   Scattered Clouds
11:35 PM 33.8 °F 27.0 °F 14.0 °F 44% 30.19 in 10.0 mi NNW 8.1 mph - N/A   Mostly Cloudy
11:55 PM 33.8 °F 26.4 °F 14.0 °F 44% 30.19 in 10.0 mi NNW 9.2 mph - N/A   Overcast